Stations météo

réclame
Mon MeteoGroup
Nice, France (7690): Température de l'air & dewpoint: 20.09.2018 17:00:00 - 26.09.2018 17:00:00 (CEST)Nice, France (7690): Température de l'air 5cm: 20.09.2018 17:00:00 - 26.09.2018 17:00:00 (CEST)Nice, France (7690): Température de l'air -20cm & Température de l'air -100cm: 20.09.2018 17:00:00 - 26.09.2018 17:00:00 (CEST)Nice, France (7690): Vitesse du vent & gusts: 20.09.2018 17:00:00 - 26.09.2018 17:00:00 (CEST)Nice, France (7690): Direction du vent: 20.09.2018 17:00:00 - 26.09.2018 17:00:00 (CEST)Nice, France (7690): reduced air pressure: 20.09.2018 17:00:00 - 26.09.2018 17:00:00 (CEST)Nice, France (7690): visibility: 20.09.2018 17:00:00 - 26.09.2018 17:00:00 (CEST)Nice, France (7690): Ensoleillement: 20.09.2018 17:00:00 - 26.09.2018 17:00:00 (CEST)Nice, France (7690): Quantités de précipitations: 20.09.2018 17:00:00 - 26.09.2018 17:00:00 (CEST)
Date & Time tt [°C] td [°C] tt 5cm [°C] tt -20cm [°C] tt -100cm [°C] ff [km/h] ff [knt] fx [km/h] fx [knt] dd ppp [hPa] vv [km] sd [min] rr [mm]
26.09.2018 17:00:00 - - - - - - - - - - - - - -
26.09.2018 16:00:00 23,1 12,1 26,4 26,2 26,2 30 16 39 21 ESE 1032,4 40 60 0,0
26.09.2018 15:00:00 22,9 11,0 27,8 26,3 26,3 9 5 22 12 SE 1032,7 40 60 0,0
26.09.2018 14:00:00 22,4 11,5 26,9 26,3 26,3 13 7 27 15 SE 1033,0 40 60 0,0
26.09.2018 13:00:00 22,1 10,9 25,4 26,3 26,3 17 9 38 20 ESE 1033,4 40 60 0,0
26.09.2018 12:00:00 21,7 10,8 24,9 26,4 26,4 30 16 39 21 ESE 1033,5 40 60 0,0
26.09.2018 11:00:00 21,3 10,7 24,4 26,4 26,2 30 16 40 22 ESE 1033,5 40 60 0,0
26.09.2018 10:00:00 20,0 10,1 21,6 26,4 26,3 10 5 20 11 NW 1033,2 40 60 0,0
26.09.2018 09:00:00 17,7 10,3 17,4 26,4 26,2 13 7 20 11 NNW 1032,4 40 60 0,0
26.09.2018 08:00:00 16,1 10,2 15,1 26,4 26,3 14 8 21 11 NNW 1032,0 40 17 0,0
26.09.2018 07:00:00 16,1 10,2 15,0 26,4 26,3 13 7 28 15 NNW 1031,5 40 0 0,0
26.09.2018 06:00:00 16,2 10,3 15,5 26,4 26,3 12 7 18 10 NNW 1031,0 40 0 0,0
26.09.2018 05:00:00 16,5 10,6 15,6 26,5 26,3 13 7 19 10 NNW 1031,0 40 0 0,0
26.09.2018 04:00:00 17,1 10,7 16,1 26,5 26,3 8 5 18 10 N 1031,1 40 0 0,0
26.09.2018 03:00:00 17,1 10,7 16,2 26,5 26,4 10 5 20 11 NW 1031,1 40 0 0,0
26.09.2018 02:00:00 18,2 10,3 17,3 26,5 26,2 13 7 39 21 N 1031,0 40 0 0,0
26.09.2018 01:00:00 21,5 11,8 20,8 26,5 26,4 30 16 43 23 E 1030,3 20 0 0,0
26.09.2018 00:00:00 21,7 10,5 21,0 26,5 26,3 31 17 44 24 E 1029,6 20 0 0,0
25.09.2018 23:00:00 21,8 11,8 21,3 26,4 26,4 37 20 50 27 E 1029,1 20 0 0,0
25.09.2018 22:00:00 22,1 11,2 21,6 26,5 26,4 36 20 47 25 E 1028,7 20 0 0,0
25.09.2018 21:00:00 22,3 12,3 21,9 26,5 26,3 37 20 46 25 E 1027,8 20 0 0,0
25.09.2018 20:00:00 23,3 12,0 22,8 26,5 26,2 7 4 36 19 E 1027,2 20 0 0,0
25.09.2018 19:00:00 23,0 12,0 22,8 26,5 26,4 30 16 41 22 ESE 1026,5 30 3 0,0
25.09.2018 18:00:00 23,3 12,9 23,7 26,5 26,3 31 17 45 24 ESE 1026,2 30 53 0,0
25.09.2018 17:00:00 23,7 12,7 26,3 26,5 26,2 33 18 43 23 ESE 1025,9 30 60 0,0
25.09.2018 16:00:00 24,0 13,2 26,9 26,6 26,3 32 17 46 25 ESE 1025,7 30 60 0,0
25.09.2018 15:00:00 23,7 12,7 27,3 26,6 26,4 34 19 46 25 ESE 1025,9 30 60 0,0
25.09.2018 14:00:00 23,9 12,2 27,1 26,6 26,3 32 17 50 27 ESE 1026,2 30 60 0,0
25.09.2018 13:00:00 23,8 11,8 26,7 26,6 26,4 37 20 55 30 E 1026,5 30 60 0,0
25.09.2018 12:00:00 23,3 12,3 26,3 26,6 26,3 38 20 53 29 E 1026,6 30 60 0,0
25.09.2018 11:00:00 23,2 11,9 25,6 26,6 26,3 44 24 60 33 E 1026,0 30 60 0,0
25.09.2018 10:00:00 23,1 11,8 24,3 26,6 26,3 40 22 49 27 E 1025,5 30 60 0,0
25.09.2018 09:00:00 22,9 11,9 23,1 26,6 26,4 38 21 49 26 E 1024,5 30 60 0,0
25.09.2018 08:00:00 22,7 12,0 22,3 26,6 26,5 39 21 53 28 E 1023,8 30 18 0,0
25.09.2018 07:00:00 23,1 13,0 22,6 26,6 26,1 41 22 53 29 E 1023,3 30 0 0,0
25.09.2018 06:00:00 23,4 14,1 23,0 26,6 26,5 39 21 51 28 E 1022,6 30 0 0,0
25.09.2018 05:00:00 24,1 13,3 23,8 26,6 26,4 37 20 47 26 E 1022,3 30 0 0,0
25.09.2018 04:00:00 24,4 14,2 24,1 26,6 26,4 33 18 48 26 E 1021,9 30 0 0,0
25.09.2018 03:00:00 25,1 14,2 24,8 26,6 26,3 30 16 56 30 ENE 1021,8 30 0 0,0
25.09.2018 02:00:00 25,3 14,1 24,5 26,6 26,3 46 25 68 37 E 1021,2 30 0 0,0
25.09.2018 01:00:00 24,9 17,1 24,7 26,6 26,4 43 23 58 32 E 1020,9 30 0 0,0
25.09.2018 00:00:00 26,0 14,5 25,3 26,6 26,3 37 20 46 25 E 1020,2 30 0 0,0
24.09.2018 23:00:00 26,1 13,9 25,1 26,6 26,4 20 11 40 22 ENE 1019,6 30 0 0,0
24.09.2018 22:00:00 26,3 12,7 25,5 26,6 26,2 5 3 14 7 NE 1018,8 30 0 0,0
24.09.2018 21:00:00 26,4 17,2 26,1 26,6 26,3 15 8 35 19 ENE 1017,4 30 0 0,0
24.09.2018 20:00:00 26,8 15,5 26,3 26,6 26,3 20 11 37 20 E 1016,5 30 0 0,0
24.09.2018 19:00:00 27,6 14,2 27,6 26,6 26,4 26 14 37 20 ENE 1015,7 30 32 0,0
24.09.2018 18:00:00 28,4 14,6 29,3 26,6 26,4 25 13 37 20 E 1015,2 20 40 0,0
24.09.2018 17:00:00 28,7 13,8 32,3 26,6 26,4 28 15 41 22 E 1015,2 20 60 0,0
24.09.2018 16:00:00 28,3 16,9 31,7 26,6 26,4 24 13 34 19 E 1015,2 20 60 0,0
24.09.2018 15:00:00 27,7 19,5 29,6 26,7 26,3 17 9 25 13 E 1015,3 20 22 0,0
24.09.2018 14:00:00 26,6 20,0 29,5 26,7 26,3 3 2 20 11 SE 1015,6 20 30 0,0
24.09.2018 13:00:00 26,9 20,5 28,7 26,7 26,4 13 7 21 11 SW 1015,2 20 31 0,0
24.09.2018 12:00:00 26,1 19,0 28,8 26,7 26,3 13 7 20 11 WSW 1014,4 20 25 0,0
24.09.2018 11:00:00 26,0 19,2 31,4 26,7 26,3 6 3 11 6 SSW 1013,9 20 58 0,0
24.09.2018 10:00:00 25,0 18,0 26,0 26,7 26,3 8 4 22 12 NNW 1012,9 20 60 0,0
24.09.2018 09:00:00 22,2 16,7 22,1 26,7 26,4 12 7 19 10 NNW 1012,1 20 60 0,0
24.09.2018 08:00:00 20,2 16,8 19,6 26,7 26,4 11 6 16 9 NW 1011,1 20 19 0,0
24.09.2018 07:00:00 20,3 17,1 19,5 26,7 26,3 13 7 17 9 NNW 1010,6 20 0 0,0
24.09.2018 06:00:00 20,6 17,6 19,9 26,7 26,3 11 6 14 8 NNW 1010,5 20 0 0,0
24.09.2018 05:00:00 20,4 17,8 19,8 26,7 26,3 10 5 14 8 NNW 1010,5 20 0 0,0
24.09.2018 04:00:00 20,8 18,2 20,2 26,7 26,3 11 6 17 9 NNW 1010,8 20 0 0,0
24.09.2018 03:00:00 21,1 18,5 20,3 26,7 26,3 10 5 13 7 NNW 1011,5 20 0 0,0
24.09.2018 02:00:00 21,8 19,0 21,1 26,7 26,4 7 4 10 5 NNW 1012,0 20 0 0,0
24.09.2018 01:00:00 22,3 19,5 21,6 26,7 26,3 6 3 11 6 NNW 1012,6 20 0 0,0
24.09.2018 00:00:00 22,9 19,9 21,6 26,7 26,4 9 5 11 6 NW 1013,6 20 0 0,0
23.09.2018 23:00:00 23,6 20,1 22,3 26,7 26,4 0 0 8 4 N 1014,6 20 0 0,0
23.09.2018 22:00:00 23,8 20,1 22,6 26,7 26,3 6 3 8 5 WSW 1015,4 20 0 0,0
23.09.2018 21:00:00 24,4 21,1 24,4 26,7 26,3 7 4 13 7 SW 1015,9 20 0 0,0
23.09.2018 20:00:00 24,6 20,3 24,8 26,7 26,4 9 5 17 9 SW 1016,0 20 0 0,0
23.09.2018 19:00:00 24,6 20,7 25,1 26,7 26,3 13 7 16 9 SSW 1016,3 20 0 0,0
23.09.2018 18:00:00 24,8 20,7 25,9 26,7 26,4 9 5 13 7 S 1016,6 20 0 0,0
23.09.2018 17:00:00 25,0 20,5 27,1 26,7 26,3 9 5 16 9 S 1016,9 20 0 0,0
23.09.2018 16:00:00 25,1 20,1 28,0 26,8 26,2 9 5 12 6 S 1017,5 20 0 0,0
23.09.2018 15:00:00 25,4 20,4 28,9 26,8 26,3 7 4 13 7 SE 1018,0 20 1 0,0
23.09.2018 14:00:00 25,9 20,5 30,0 26,8 26,4 9 5 15 8 SSE 1018,7 20 42 0,0
23.09.2018 13:00:00 25,7 20,7 28,5 26,8 26,3 12 7 21 11 SE 1019,0 20 33 0,0
23.09.2018 12:00:00 26,1 20,2 27,3 26,8 26,4 17 9 21 11 E 1019,2 20 27 0,0
23.09.2018 11:00:00 25,5 19,4 25,7 26,8 26,3 15 8 18 10 E 1019,2 20 2 0,0
23.09.2018 10:00:00 23,9 16,9 23,7 26,8 26,3 13 7 19 10 NNW 1019,0 20 0 0,0
23.09.2018 09:00:00 22,7 16,9 22,4 26,8 26,4 10 5 18 10 NNW 1018,6 20 0 0,0
23.09.2018 08:00:00 22,2 17,3 21,8 26,8 26,3 14 7 19 10 NNW 1017,9 20 0 0,0
23.09.2018 07:00:00 21,8 18,2 20,6 26,8 26,4 13 7 17 9 NW 1017,7 20 0 0,0
23.09.2018 06:00:00 21,4 18,4 20,5 26,8 26,1 9 5 10 6 NW 1017,5 25 0 0,0
23.09.2018 05:00:00 21,8 19,0 20,9 26,8 26,4 5 3 11 6 NNW 1017,6 25 0 0,0
23.09.2018 04:00:00 21,8 19,0 21,1 26,8 26,3 8 5 10 6 NW 1017,6 25 0 0,0
23.09.2018 03:00:00 22,4 19,0 21,7 26,7 26,3 5 3 11 6 NW 1017,9 25 0 0,0
23.09.2018 02:00:00 22,7 19,5 22,1 26,7 26,4 10 6 13 7 NW 1018,2 20 0 0,0
23.09.2018 01:00:00 23,4 19,8 22,7 26,7 26,3 11 6 14 8 NNW 1018,4 20 0 0,0
23.09.2018 00:00:00 23,7 19,8 22,6 26,7 26,3 7 4 9 5 NNW 1018,4 20 0 0,0
22.09.2018 23:00:00 24,4 19,9 23,2 26,7 26,4 2 1 10 6 SSE 1018,3 20 0 0,0
22.09.2018 22:00:00 24,8 19,8 24,1 26,7 26,3 6 3 12 7 SE 1018,2 20 0 0,0
22.09.2018 21:00:00 24,9 19,7 24,4 26,7 26,3 10 5 16 9 ESE 1017,5 20 0 0,0
22.09.2018 20:00:00 24,9 20,4 24,7 26,7 26,2 12 6 15 8 ESE 1016,9 20 7 0,0
22.09.2018 19:00:00 25,4 21,1 26,2 26,7 26,3 10 5 13 7 E 1016,4 25 60 0,0
22.09.2018 18:00:00 26,2 20,8 29,6 26,7 26,3 8 4 10 5 ESE 1015,9 25 60 0,0
22.09.2018 17:00:00 26,5 20,3 32,3 26,7 26,3 6 3 12 7 SSE 1015,9 25 60 0,0
22.09.2018 16:00:00 26,9 20,3 33,4 26,7 26,4 9 5 19 10 SSE 1015,8 25 60 0,0
22.09.2018 15:00:00 26,8 21,1 33,0 26,8 26,3 14 8 24 13 SSW 1016,0 25 60 0,0
22.09.2018 14:00:00 26,5 20,8 33,5 26,8 26,2 19 11 24 13 SSW 1015,9 25 60 0,0
22.09.2018 13:00:00 26,7 21,5 32,7 26,8 26,4 20 11 26 14 S 1015,8 25 60 0,0
22.09.2018 12:00:00 26,7 20,3 32,7 26,8 26,3 15 8 20 11 SSW 1015,7 19 60 0,0
22.09.2018 11:00:00 26,4 19,0 31,0 26,8 26,2 7 4 16 9 WSW 1015,7 27 60 0,0
22.09.2018 10:00:00 24,8 16,8 25,5 26,8 26,3 10 5 23 12 NNW 1015,5 20 54 0,0
22.09.2018 09:00:00 23,0 16,3 23,0 26,8 26,3 14 8 23 12 NNW 1015,2 20 56 0,0
22.09.2018 08:00:00 21,5 16,0 20,4 26,8 26,3 13 7 18 10 NNW 1014,7 20 21 0,0
22.09.2018 07:00:00 20,9 15,9 20,4 26,8 26,2 10 6 17 9 NNW 1014,3 20 0 0,0
22.09.2018 06:00:00 21,3 16,0 20,8 26,7 26,3 9 5 16 9 NNW 1014,0 20 0 0,0
22.09.2018 05:00:00 21,7 16,2 21,0 26,7 26,3 9 5 15 8 NNW 1014,1 20 0 0,0
22.09.2018 04:00:00 21,6 16,5 21,2 26,7 26,3 12 7 15 8 NNW 1014,1 20 0 0,0
22.09.2018 03:00:00 21,7 16,9 21,2 26,7 26,3 10 6 15 8 NW 1014,4 20 0 0,0
22.09.2018 02:00:00 22,5 17,2 21,5 26,7 26,3 6 3 11 6 NW 1014,4 20 0 0,0
22.09.2018 01:00:00 22,3 17,4 20,8 26,7 26,2 6 4 10 5 N 1014,5 20 0 0,0
22.09.2018 00:00:00 22,7 18,5 21,6 26,7 26,3 3 1 14 7 E 1014,5 20 0 0,0
21.09.2018 23:00:00 24,0 18,2 23,2 26,6 26,3 11 6 15 8 NW 1014,4 20 0 0,0
21.09.2018 22:00:00 24,1 18,5 23,4 26,7 26,5 11 6 15 8 NNW 1014,6 20 0 0,0
21.09.2018 21:00:00 25,3 20,3 24,7 26,6 26,4 11 6 18 10 ENE 1014,7 20 0 0,0
21.09.2018 20:00:00 25,4 20,0 25,1 26,6 26,3 15 8 24 13 E 1014,4 20 0 0,0
21.09.2018 19:00:00 25,7 20,5 25,9 26,6 26,3 19 10 25 14 E 1014,4 20 46 0,0
21.09.2018 18:00:00 26,4 20,7 28,9 26,6 26,1 17 9 22 12 E 1014,3 20 60 0,0
21.09.2018 17:00:00 27,0 20,3 31,1 26,7 26,2 14 8 18 10 ESE 1014,6 20 60 0,0
21.09.2018 16:00:00 26,8 19,9 32,4 26,7 26,4 12 6 15 8 SE 1015,0 25 60 0,0
21.09.2018 15:00:00 26,9 19,5 32,9 26,7 26,3 13 7 19 11 SE 1015,2 25 60 0,0
21.09.2018 14:00:00 27,0 19,6 33,3 26,7 26,3 16 8 20 11 SSE 1015,5 25 60 0,0
21.09.2018 13:00:00 27,1 20,2 34,1 26,7 26,3 15 8 21 12 S 1015,7 20 60 0,0
21.09.2018 12:00:00 27,2 18,5 33,8 26,7 26,2 16 9 19 10 S 1015,9 20 60 0,0
21.09.2018 11:00:00 28,4 16,0 32,7 26,7 26,3 8 4 16 8 SE 1016,1 20 60 0,0
21.09.2018 10:00:00 26,3 16,0 27,9 26,7 26,3 10 6 21 12 NNW 1016,1 20 60 0,0
21.09.2018 09:00:00 24,1 15,8 24,4 26,7 26,3 13 7 20 11 NNW 1016,1 20 60 0,0
21.09.2018 08:00:00 23,3 15,6 22,1 26,7 26,2 12 7 25 14 NNW 1016,0 15 22 0,0
21.09.2018 07:00:00 22,9 16,0 22,3 26,7 26,3 14 8 22 12 NNW 1015,7 15 0 0,0
21.09.2018 06:00:00 22,9 16,0 22,4 26,7 26,3 15 8 22 12 NNW 1015,4 15 0 0,0
21.09.2018 05:00:00 23,1 16,2 22,6 26,6 26,3 14 7 20 11 NNW 1015,6 15 0 0,0
21.09.2018 04:00:00 23,5 16,3 23,0 26,6 26,2 14 7 22 12 NNW 1015,7 15 0 0,0
21.09.2018 03:00:00 23,7 16,5 23,2 26,6 26,3 13 7 21 12 NNW 1016,1 15 0 0,0
21.09.2018 02:00:00 24,0 16,5 23,6 26,6 26,2 13 7 18 10 NNW 1016,4 15 0 0,0
21.09.2018 01:00:00 24,5 16,5 23,8 26,6 26,2 10 5 16 9 NNW 1016,5 15 0 0,0
21.09.2018 00:00:00 25,0 16,4 24,6 26,6 26,1 11 6 17 9 NNW 1016,8 15 0 0,0
20.09.2018 23:00:00 25,5 16,6 24,9 26,5 26,4 10 5 16 9 NNW 1017,0 15 0 0,0
20.09.2018 22:00:00 26,0 17,1 24,7 26,5 26,3 8 4 12 6 N 1016,8 15 0 0,0
20.09.2018 21:00:00 25,4 17,8 24,7 26,5 26,2 3 1 8 4 WNW 1016,7 15 0 0,0
20.09.2018 20:00:00 25,7 18,4 25,2 26,5 26,5 0 0 4 2 N 1016,5 15 11 0,0
20.09.2018 19:00:00 26,8 18,6 28,0 26,5 26,2 0 0 8 5 N 1016,7 15 60 0,0
20.09.2018 18:00:00 26,8 19,9 31,5 26,5 26,1 6 3 9 5 SSW 1016,9 12 60 0,0
20.09.2018 17:00:00 27,4 20,0 34,4 26,5 26,2 6 3 10 5 S 1017,0 12 60 0,0

tt = Température de l'air
td = dewpoint
tt 5cm = Température de l'air 5cm
tt -20cm = Température de l'air -20cm
tt -100cm = Température de l'air -100cm
ff = Vitesse du vent
fx = gusts
dd = Direction du vent
ppp = reduced air pressure
vv = visibility
sd = Ensoleillement
rr = Quantités de précipitations

stations d'obs. à proximité